Time,TemperatureF,DewpointF,PressureIn,WindDirection,WindDirectionDegrees,WindSpeedMPH,WindSpeedGustMPH,Humidity,HourlyPrecipIn,Conditions,Clouds,dailyrainin,SoftwareType,DateUTC
2013-04-08 00:02:00,54.0,51.0,29.72,SE,142,1.0,5.0,91,0.55,,,0.64,,2013-04-08 05:02:00,
2013-04-08 00:12:00,54.0,51.0,29.72,SE,142,1.0,5.0,91,0.55,,,0.64,,2013-04-08 05:12:00,
2013-04-08 00:22:00,54.0,51.0,29.72,SE,142,1.0,5.0,91,0.55,,,0.64,,2013-04-08 05:22:00,
2013-04-08 00:32:00,54.0,52.0,29.72,NNW,331,0.0,6.0,92,0.51,,,0.75,,2013-04-08 05:32:00,
2013-04-08 00:42:00,53.0,51.0,29.70,NNW,338,4.0,6.0,92,0.30,,,0.76,,2013-04-08 05:42:00,
2013-04-08 00:52:00,53.0,51.0,29.70,NNW,338,4.0,6.0,92,0.30,,,0.76,,2013-04-08 05:52:00,
2013-04-08 01:02:00,53.0,51.0,29.68,NNW,348,1.0,6.0,92,0.11,,,0.76,,2013-04-08 06:02:00,
2013-04-08 01:12:00,52.0,50.0,29.68,NNW,348,0.0,2.0,92,0.02,,,0.76,,2013-04-08 06:12:00,
2013-04-08 01:22:00,52.0,50.0,29.68,NNW,348,0.0,2.0,92,0.02,,,0.76,,2013-04-08 06:22:00,
2013-04-08 01:32:00,52.0,49.0,29.67,NNW,348,0.0,0.0,91,0.01,,,0.76,,2013-04-08 06:32:00,
2013-04-08 01:42:00,52.0,49.0,29.67,NNW,348,0.0,0.0,91,0.01,,,0.76,,2013-04-08 06:42:00,
2013-04-08 01:52:00,51.0,49.0,29.67,NNW,348,0.0,1.0,92,0.00,,,0.76,,2013-04-08 06:52:00,
2013-04-08 02:02:00,51.0,49.0,29.67,North,360,0.0,0.0,92,0.00,,,0.76,,2013-04-08 07:02:00,
2013-04-08 02:12:00,51.0,49.0,29.67,North,357,1.0,2.0,93,0.00,,,0.76,,2013-04-08 07:12:00,
2013-04-08 02:22:00,51.0,49.0,29.67,North,357,1.0,2.0,93,0.00,,,0.76,,2013-04-08 07:22:00,
2013-04-08 02:32:00,51.0,49.0,29.67,North,357,1.0,2.0,93,0.00,,,0.76,,2013-04-08 07:32:00,
2013-04-08 02:42:00,51.0,49.0,29.67,North,357,1.0,2.0,93,0.00,,,0.76,,2013-04-08 07:42:00,
2013-04-08 02:52:00,51.0,49.0,29.66,SW,221,3.0,4.0,93,0.00,,,0.76,,2013-04-08 07:52:00,
2013-04-08 03:02:00,51.0,49.0,29.66,WSW,248,0.0,2.0,93,0.00,,,0.76,,2013-04-08 08:02:00,
2013-04-08 03:12:00,51.0,49.0,29.66,WSW,248,0.0,2.0,93,0.00,,,0.76,,2013-04-08 08:12:00,
2013-04-08 03:22:00,51.0,49.0,29.66,WSW,248,0.0,2.0,93,0.00,,,0.76,,2013-04-08 08:22:00,
2013-04-08 03:32:00,51.0,49.0,29.66,WSW,248,2.0,3.0,94,0.00,,,0.76,,2013-04-08 08:32:00,
2013-04-08 03:42:00,51.0,49.0,29.67,SSW,210,1.0,5.0,94,0.00,,,0.76,,2013-04-08 08:42:00,
2013-04-08 03:52:00,51.0,49.0,29.67,SSW,210,1.0,5.0,94,0.00,,,0.76,,2013-04-08 08:52:00,
2013-04-08 04:02:00,51.0,49.0,29.66,SSW,210,0.0,2.0,94,0.00,,,0.76,,2013-04-08 09:02:00,
2013-04-08 04:12:00,51.0,49.0,29.66,SSW,210,2.0,4.0,94,0.00,,,0.76,,2013-04-08 09:12:00,
2013-04-08 04:22:00,51.0,49.0,29.66,SSW,210,2.0,4.0,94,0.00,,,0.76,,2013-04-08 09:22:00,
2013-04-08 04:33:00,51.0,49.0,29.66,SSW,209,2.0,5.0,94,0.00,,,0.76,,2013-04-08 09:33:00,
2013-04-08 04:42:00,51.0,49.0,29.64,SW,214,3.0,6.0,94,0.00,,,0.76,,2013-04-08 09:42:00,
2013-04-08 04:53:00,51.0,49.0,29.64,SW,214,3.0,6.0,94,0.00,,,0.76,,2013-04-08 09:53:00,
2013-04-08 05:03:00,51.0,49.0,29.65,SSW,207,2.0,7.0,93,0.00,,,0.76,,2013-04-08 10:03:00,
2013-04-08 05:13:00,52.0,50.0,29.65,SSW,205,1.0,4.0,92,0.00,,,0.76,,2013-04-08 10:13:00,
2013-04-08 05:23:00,52.0,50.0,29.65,SSW,205,1.0,4.0,92,0.00,,,0.76,,2013-04-08 10:23:00,
2013-04-08 05:33:00,52.0,50.0,29.65,SSW,205,2.0,5.0,92,0.00,,,0.76,,2013-04-08 10:33:00,
2013-04-08 05:42:00,52.0,50.0,29.65,SSW,205,2.0,5.0,92,0.00,,,0.76,,2013-04-08 10:42:00,
2013-04-08 05:53:00,52.0,50.0,29.65,SSW,205,0.0,4.0,92,0.00,,,0.76,,2013-04-08 10:53:00,
2013-04-08 06:02:00,52.0,50.0,29.65,SSW,205,0.0,3.0,92,0.00,,,0.76,,2013-04-08 11:02:00,
2013-04-08 06:12:00,52.0,49.0,29.65,SSW,205,1.0,6.0,91,0.00,,,0.76,,2013-04-08 11:12:00,
2013-04-08 06:22:00,52.0,49.0,29.65,SSW,205,1.0,6.0,91,0.00,,,0.76,,2013-04-08 11:22:00,
2013-04-08 06:32:00,52.0,49.0,29.65,SSW,198,3.0,5.0,90,0.00,,,0.76,,2013-04-08 11:32:00,
2013-04-08 06:42:00,52.0,49.0,29.65,SSW,198,3.0,5.0,90,0.00,,,0.76,,2013-04-08 11:42:00,
2013-04-08 06:52:00,53.0,50.0,29.66,SSW,210,3.0,5.0,89,0.00,,,0.76,,2013-04-08 11:52:00,
2013-04-08 07:02:00,53.0,50.0,29.67,SSW,205,0.0,5.0,89,0.00,,,0.76,,2013-04-08 12:02:00,
2013-04-08 07:12:00,53.0,50.0,29.67,SSW,205,0.0,5.0,89,0.00,,,0.76,,2013-04-08 12:12:00,
2013-04-08 07:22:00,53.0,50.0,29.68,SSW,205,1.0,2.0,90,0.00,,,0.76,,2013-04-08 12:22:00,
2013-04-08 07:32:00,53.0,50.0,29.69,SSW,205,0.0,0.0,91,0.00,,,0.76,,2013-04-08 12:32:00,
2013-04-08 07:42:00,53.0,50.0,29.69,SSW,205,0.0,0.0,91,0.00,,,0.76,,2013-04-08 12:42:00,
2013-04-08 07:52:00,53.0,50.0,29.69,SSW,205,1.0,1.0,91,0.00,,,0.76,,2013-04-08 12:52:00,
2013-04-08 08:02:00,53.0,50.0,29.69,SSW,195,0.0,2.0,91,0.00,,,0.76,,2013-04-08 13:02:00,
2013-04-08 08:12:00,53.0,51.0,29.69,SSW,195,3.0,4.0,92,0.00,,,0.76,,2013-04-08 13:12:00,
2013-04-08 08:22:00,53.0,51.0,29.69,SSW,195,3.0,4.0,92,0.00,,,0.76,,2013-04-08 13:22:00,
2013-04-08 08:32:00,54.0,52.0,29.70,SSE,155,1.0,5.0,92,0.00,,,0.76,,2013-04-08 13:32:00,
2013-04-08 08:42:00,54.0,52.0,29.70,SSE,155,1.0,5.0,92,0.00,,,0.76,,2013-04-08 13:42:00,
2013-04-08 08:52:00,54.0,52.0,29.70,South,173,1.0,5.0,92,0.00,,,0.76,,2013-04-08 13:52:00,
2013-04-08 09:02:00,55.0,53.0,29.70,South,173,0.0,4.0,92,0.00,,,0.76,,2013-04-08 14:02:00,
2013-04-08 09:12:00,56.0,54.0,29.69,SSE,149,2.0,3.0,92,0.00,,,0.76,,2013-04-08 14:12:00,
2013-04-08 09:22:00,56.0,54.0,29.69,SSE,149,2.0,3.0,92,0.00,,,0.76,,2013-04-08 14:22:00,
2013-04-08 09:32:00,56.0,54.0,29.70,SE,145,0.0,4.0,92,0.00,,,0.76,,2013-04-08 14:32:00,
2013-04-08 09:42:00,57.0,55.0,29.70,SE,146,2.0,2.0,92,0.00,,,0.76,,2013-04-08 14:42:00,
2013-04-08 09:52:00,57.0,55.0,29.70,SE,146,2.0,2.0,92,0.00,,,0.76,,2013-04-08 14:52:00,
2013-04-08 10:02:00,58.0,56.0,29.70,SSE,151,2.0,6.0,92,0.00,,,0.76,,2013-04-08 15:02:00,
2013-04-08 10:12:00,58.0,56.0,29.70,South,182,2.0,6.0,92,0.00,,,0.76,,2013-04-08 15:12:00,
2013-04-08 10:22:00,58.0,56.0,29.70,South,182,2.0,6.0,92,0.00,,,0.76,,2013-04-08 15:22:00,
2013-04-08 10:33:00,59.0,56.0,29.71,SSE,167,4.0,7.0,90,0.00,,,0.76,,2013-04-08 15:33:00,
2013-04-08 10:42:00,59.0,56.0,29.71,SSE,167,4.0,7.0,90,0.00,,,0.76,,2013-04-08 15:42:00,
2013-04-08 10:52:00,60.0,57.0,29.72,South,171,3.0,5.0,90,0.00,,,0.76,,2013-04-08 15:52:00,
2013-04-08 11:03:00,61.0,58.0,29.72,South,173,3.0,5.0,89,0.00,,,0.76,,2013-04-08 16:03:00,
2013-04-08 11:13:00,61.0,57.0,29.73,South,185,2.0,6.0,88,0.00,,,0.76,,2013-04-08 16:13:00,
2013-04-08 11:22:00,61.0,57.0,29.73,South,185,2.0,6.0,88,0.00,,,0.76,,2013-04-08 16:22:00,
2013-04-08 11:32:00,61.0,57.0,29.73,South,185,2.0,6.0,88,0.00,,,0.76,,2013-04-08 16:32:00,
2013-04-08 11:42:00,63.0,58.0,29.72,South,179,0.0,5.0,85,0.00,,,0.76,,2013-04-08 16:42:00,
2013-04-08 11:52:00,64.0,59.0,29.72,South,187,2.0,5.0,83,0.00,,,0.76,,2013-04-08 16:52:00,
2013-04-08 12:03:00,66.0,60.0,29.72,SSW,202,5.0,8.0,80,0.00,,,0.76,,2013-04-08 17:03:00,
2013-04-08 12:12:00,66.0,59.0,29.72,SW,225,2.0,7.0,79,0.00,,,0.76,,2013-04-08 17:12:00,
2013-04-08 12:22:00,66.0,59.0,29.72,SW,225,2.0,7.0,79,0.00,,,0.76,,2013-04-08 17:22:00,
2013-04-08 12:32:00,68.0,60.0,29.71,SSW,211,3.0,6.0,75,0.00,,,0.76,,2013-04-08 17:32:00,
2013-04-08 12:43:00,68.0,60.0,29.71,SSW,211,3.0,6.0,75,0.00,,,0.76,,2013-04-08 17:43:00,
2013-04-08 12:52:00,69.0,61.0,29.71,SSE,157,2.0,6.0,75,0.00,,,0.76,,2013-04-08 17:52:00,
2013-04-08 13:02:00,70.0,61.0,29.71,SE,144,1.0,3.0,72,0.00,,,0.76,,2013-04-08 18:02:00,
2013-04-08 13:12:00,70.0,61.0,29.70,SE,128,0.0,5.0,73,0.00,,,0.76,,2013-04-08 18:12:00,
2013-04-08 13:22:00,70.0,61.0,29.70,SE,128,0.0,5.0,73,0.00,,,0.76,,2013-04-08 18:22:00,
2013-04-08 13:32:00,71.0,62.0,29.71,SE,131,4.0,7.0,72,0.00,,,0.76,,2013-04-08 18:32:00,
2013-04-08 13:42:00,70.0,61.0,29.71,SSE,168,2.0,7.0,73,0.00,,,0.76,,2013-04-08 18:42:00,
2013-04-08 13:52:00,70.0,61.0,29.71,SSE,168,2.0,7.0,73,0.00,,,0.76,,2013-04-08 18:52:00,
2013-04-08 14:02:00,70.0,61.0,29.71,SSE,151,3.0,8.0,73,0.00,,,0.76,,2013-04-08 19:02:00,
2013-04-08 14:12:00,69.0,60.0,29.71,SSE,152,5.0,11.0,74,0.00,,,0.76,,2013-04-08 19:12:00,
2013-04-08 14:22:00,69.0,60.0,29.71,SSE,152,5.0,11.0,74,0.00,,,0.76,,2013-04-08 19:22:00,
2013-04-08 14:33:00,68.0,60.0,29.71,SSE,161,5.0,8.0,75,0.00,,,0.76,,2013-04-08 19:33:00,
2013-04-08 14:42:00,68.0,60.0,29.71,SSE,163,2.0,7.0,76,0.00,,,0.76,,2013-04-08 19:42:00,
2013-04-08 14:52:00,68.0,60.0,29.71,SSE,163,2.0,7.0,76,0.00,,,0.76,,2013-04-08 19:52:00,
2013-04-08 15:02:00,68.0,60.0,29.71,SSE,151,2.0,7.0,76,0.00,,,0.76,,2013-04-08 20:02:00,
2013-04-08 15:12:00,68.0,61.0,29.71,South,170,2.0,7.0,77,0.00,,,0.76,,2013-04-08 20:12:00,
2013-04-08 15:22:00,68.0,61.0,29.71,South,170,2.0,7.0,77,0.00,,,0.76,,2013-04-08 20:22:00,
2013-04-08 15:33:00,70.0,61.0,29.70,South,174,3.0,8.0,73,0.00,,,0.76,,2013-04-08 20:33:00,
2013-04-08 15:43:00,70.0,61.0,29.70,South,174,3.0,8.0,73,0.00,,,0.76,,2013-04-08 20:43:00,
2013-04-08 15:52:00,71.0,61.0,29.69,SSE,150,1.0,6.0,70,0.00,,,0.76,,2013-04-08 20:52:00,
2013-04-08 16:02:00,73.0,61.0,29.68,SSE,148,4.0,5.0,66,0.00,,,0.76,,2013-04-08 21:02:00,
2013-04-08 16:12:00,73.0,61.0,29.68,SE,130,3.0,6.0,66,0.00,,,0.76,,2013-04-08 21:12:00,
2013-04-08 16:22:00,73.0,61.0,29.68,SE,130,3.0,6.0,66,0.00,,,0.76,,2013-04-08 21:22:00,
2013-04-08 16:32:00,73.0,62.0,29.67,SE,127,4.0,7.0,68,0.00,,,0.76,,2013-04-08 21:32:00,
2013-04-08 16:43:00,73.0,62.0,29.67,SE,127,4.0,7.0,68,0.00,,,0.76,,2013-04-08 21:43:00,
2013-04-08 16:52:00,72.0,62.0,29.66,SE,140,1.0,7.0,70,0.00,,,0.76,,2013-04-08 21:52:00,
2013-04-08 17:03:00,73.0,61.0,29.66,SE,129,3.0,11.0,67,0.00,,,0.76,,2013-04-08 22:03:00,
2013-04-08 17:13:00,73.0,61.0,29.66,SE,144,4.0,13.0,67,0.00,,,0.76,,2013-04-08 22:13:00,
2013-04-08 17:22:00,73.0,61.0,29.66,SE,144,4.0,13.0,67,0.00,,,0.76,,2013-04-08 22:22:00,
2013-04-08 17:32:00,73.0,61.0,29.66,SE,144,4.0,13.0,67,0.00,,,0.76,,2013-04-08 22:32:00,
2013-04-08 17:42:00,73.0,62.0,29.66,SSE,156,5.0,10.0,68,0.00,,,0.76,,2013-04-08 22:42:00,
2013-04-08 17:52:00,72.0,61.0,29.67,SE,141,4.0,7.0,69,0.00,,,0.76,,2013-04-08 22:52:00,
2013-04-08 18:02:00,71.0,61.0,29.67,SE,129,2.0,8.0,70,0.00,,,0.76,,2013-04-08 23:02:00,
2013-04-08 18:12:00,71.0,61.0,29.67,SE,129,2.0,8.0,70,0.00,,,0.76,,2013-04-08 23:12:00,
2013-04-08 18:22:00,71.0,61.0,29.67,SE,129,2.0,8.0,70,0.00,,,0.76,,2013-04-08 23:22:00,
2013-04-08 18:32:00,71.0,61.0,29.67,SE,145,3.0,7.0,71,0.00,,,0.76,,2013-04-08 23:32:00,
2013-04-08 18:42:00,71.0,61.0,29.67,SSE,151,4.0,8.0,70,0.00,,,0.76,,2013-04-08 23:42:00,
2013-04-08 18:52:00,71.0,61.0,29.67,SSE,151,4.0,8.0,70,0.00,,,0.76,,2013-04-08 23:52:00,
2013-04-08 19:02:00,70.0,60.0,29.68,SE,134,2.0,7.0,71,0.00,,,0.76,,2013-04-09 00:02:00,
2013-04-08 19:12:00,70.0,60.0,29.68,SE,134,2.0,7.0,71,0.00,,,0.76,,2013-04-09 00:12:00,
2013-04-08 19:22:00,70.0,61.0,29.68,SE,133,2.0,6.0,72,0.00,,,0.76,,2013-04-09 00:22:00,
2013-04-08 19:32:00,70.0,61.0,29.68,SE,144,2.0,6.0,72,0.00,,,0.76,,2013-04-09 00:32:00,
2013-04-08 19:42:00,70.0,61.0,29.69,SE,140,1.0,6.0,73,0.00,,,0.76,,2013-04-09 00:42:00,
2013-04-08 19:52:00,70.0,61.0,29.69,SE,140,1.0,6.0,73,0.00,,,0.76,,2013-04-09 00:52:00,
2013-04-08 20:02:00,69.0,60.0,29.69,SSE,147,3.0,7.0,74,0.00,,,0.76,,2013-04-09 01:02:00,
2013-04-08 20:12:00,69.0,60.0,29.70,SE,144,3.0,10.0,73,0.00,,,0.76,,2013-04-09 01:12:00,
2013-04-08 20:22:00,69.0,60.0,29.70,SE,144,3.0,10.0,73,0.00,,,0.76,,2013-04-09 01:22:00,
2013-04-08 20:33:00,68.0,59.0,29.69,SSE,147,2.0,6.0,74,0.00,,,0.76,,2013-04-09 01:33:00,
2013-04-08 20:42:00,68.0,60.0,29.70,SE,145,2.0,6.0,75,0.00,,,0.76,,2013-04-09 01:42:00,
2013-04-08 20:52:00,68.0,60.0,29.70,SE,145,2.0,6.0,75,0.00,,,0.76,,2013-04-09 01:52:00,
2013-04-08 21:02:00,67.0,59.0,29.71,SE,141,2.0,5.0,76,0.00,,,0.76,,2013-04-09 02:02:00,
2013-04-08 21:12:00,67.0,59.0,29.71,SE,141,2.0,5.0,76,0.00,,,0.76,,2013-04-09 02:12:00,
2013-04-08 21:22:00,67.0,59.0,29.71,SE,136,2.0,5.0,76,0.00,,,0.76,,2013-04-09 02:22:00,
2013-04-08 21:32:00,67.0,60.0,29.71,SE,143,0.0,5.0,77,0.00,,,0.74,,2013-04-09 02:32:00,
2013-04-08 21:42:00,66.0,59.0,29.72,SE,143,2.0,2.0,78,0.00,,,0.74,,2013-04-09 02:42:00,
2013-04-08 21:52:00,66.0,59.0,29.72,SE,143,2.0,2.0,78,0.00,,,0.74,,2013-04-09 02:52:00,
2013-04-08 22:02:00,67.0,60.0,29.72,SE,140,3.0,6.0,78,0.00,,,0.72,,2013-04-09 03:02:00,
2013-04-08 22:12:00,67.0,60.0,29.72,SE,140,3.0,6.0,78,0.00,,,0.72,,2013-04-09 03:12:00,
2013-04-08 22:21:00,67.0,60.0,29.72,SE,141,3.0,6.0,78,0.00,,,0.71,,2013-04-09 03:21:00,
2013-04-08 22:33:00,66.0,59.0,29.72,SE,139,1.0,5.0,78,0.00,,,0.71,,2013-04-09 03:33:00,
2013-04-08 22:43:00,66.0,59.0,29.72,SE,139,1.0,5.0,78,0.00,,,0.71,,2013-04-09 03:43:00,
2013-04-08 22:52:00,66.0,59.0,29.72,SE,139,3.0,5.0,79,0.00,,,0.70,,2013-04-09 03:52:00,
2013-04-08 23:03:00,65.0,59.0,29.72,SE,140,2.0,5.0,80,0.00,,,0.65,,2013-04-09 04:03:00,
2013-04-08 23:13:00,65.0,59.0,29.72,SE,140,2.0,5.0,80,0.00,,,0.65,,2013-04-09 04:13:00,
2013-04-08 23:23:00,65.0,59.0,29.71,SE,131,3.0,7.0,81,0.00,,,0.60,,2013-04-09 04:23:00,
2013-04-08 23:32:00,65.0,59.0,29.71,SE,127,2.0,7.0,81,0.00,,,0.57,,2013-04-09 04:32:00,
2013-04-08 23:42:00,65.0,59.0,29.71,SE,127,2.0,7.0,81,0.00,,,0.57,,2013-04-09 04:42:00,
2013-04-08 23:52:00,65.0,59.0,29.71,SE,127,2.0,7.0,81,0.00,,,0.57,,2013-04-09 04:52:00,